Starlink 31951

operational
NORAD ID: 59890 Int'l Des: 2024-100 Owner: SPXS Country: US Constellation: starlink
LEOCIRCULAR

关于 Starlink 31951

正在加载描述...

实时位置

正在加载3D地球...

即将过境

高度历史

Altitude vs Time

uPlot chart will show altitude changes over time

两行轨道根数

1 59890U 24100F 25260.05194471 -.00001825 00000-0 -56835-4 0 9993
2 59890 43.0066 25.8047 0001246 273.7578 86.3132 15.27564731 74500
Epoch: Sep 17, 2025 • Age: 25 hours

当前状态

高度 487.1 km
速度 7.63 km/s
星下点 43.16°N, 69.98°E
发射日期 May 28, 2024
运行时间 1.3 years
类型 internet

技术详情

分类 Payload
质量 730.00 kg
干质量 700.00 kg
总质量 730.00 kg
长度 0.30 m
直径 4.10 m
跨度 29.00 m
形状 Box + pan
制造商 SPXS
平台类型 Starlink V2M
阶段状态 In Orbit
所有者/国家 SPXS/US

大型星座

Loading constellations...